Regional Weather Roundup
Issued by NWS

Home | Current Version | Previous Version | Text Only | Print | Product List | Glossary Off
Versions: 1 2 3 4 5 6 7 8 9 10 11 12 13 14 15 16 17 18 19 20 21 22 23 24 25 26 27 28 29 30 31 32 33 34 35 36 37 38 39 40 41 42 43 44 45 46 47 48 49 50

770
ASUS43 KLOT 302003
RWRIL

ILLINOIS REGIONAL WEATHER ROUNDUP
NATIONAL WEATHER SERVICE CHICAGO/ROMEOVILLE IL
300 PM CDT MON MAY 30 2016

NOTE: "FAIR" INDICATES FEW OR NO CLOUDS BELOW 12,000 FEET WITH NO
SIGNIFICANT WEATHER AND/OR OBSTRUCTIONS TO VISIBILITY.

* THESE STATIONS ARE NOT UNDER NWS QUALITY CONTROL. THEY ALSO MAY NOT
  REPORT WEATHER SUCH AS PRECIPITATION OR FOG.

ILZ001-002-007-009-015-016-024-302100-
NORTHWEST ILLINOIS

CITY           SKY/WX    TMP DP  RH WIND       PRES   REMARKS
MOLINE         SUNNY     86  59  39 SW5       29.98F HX  85
STERLING*      SUNNY     85  58  39 W7        29.98F HX  84
$$

ILZ003-004-008-010-011-017-018-302100-
NORTH CENTRAL ILLINOIS

CITY           SKY/WX    TMP DP  RH WIND       PRES   REMARKS
ROCKFORD       MOSUNNY   84  52  33 NW9       30.00F HX  82
FREEPORT*      MOSUNNY   80  50  35 CALM      30.00F HX  80
ROCHELLE*      SUNNY     84  58  40 NW8       29.99F HX  83
DE KALB*       SUNNY     84  57  39 W15       30.00F HX  83
$$

ILZ005-006-012>014-019>023-302100-
NORTHEAST ILLINOIS

CITY           SKY/WX    TMP DP  RH WIND       PRES   REMARKS
CHICAGO-OHARE  MOSUNNY   86  55  34 NW13      29.97F HX  84
CHICAGO-MIDWAY MOSUNNY   84  57  39 E10       29.97F HX  83
AURORA         SUNNY     87  58  37 W13       29.98F HX  86
LANSING*       MOSUNNY   84  56  37 NW5       29.99S HX  83
WAUKEGAN       SUNNY     75  60  59 SE9       29.98F
DUPAGE AIRPORT SUNNY     85  54  34 NW13      29.98F HX  83
WHEELING       MOSUNNY   82  59  45 E5        29.99S HX  82
MORRIS*        SUNNY     89  55  31 N5        29.96F HX  87
NORTHERLY ISL    N/A     68  58  70 NE3         N/A
NORTHERLY ISL    N/A     68  58  70 NE3         N/A
$$

LMZ740>746-302100-
SOUTHERN LAKE MICHIGAN

STATION/POSITION SKY/WX   TEMP    WIND        PRES    VSBY  WAVE
                          AIR SEA DIR/SP/G                  HT/PER
                          (F)     (DEG/KT/KT) (MB)    (MI)  (FT/S)
SOUTHERN BUOY              59 56  130/  4/  4 1016.1          0
WILMETTE HARBOR            63 58  120/  6/  6   N/A           0
HARRISON CRIB              65      90/  5/  6   N/A
BURNHAM HARBOR             68      50/  3/  4   N/A
CALUMET HARBOR             68      70/  7/ 10 1015.4F
BURNS HARBOR               67      70/ 10/ 11 1016.3F
MICHIGAN CITY              65      30/ 10/ 10   N/A
MICHIGAN CITY 6N           65 62   70/  6/  8   N/A           1
ST. JOSEPH                 66 66   40/  4/  6   N/A           0
$$

ILZ025>027-034>036-040-047-049-050-058-095>099-302100-
WEST-CENTRAL ILLINOIS

CITY           SKY/WX    TMP DP  RH WIND       PRES   REMARKS
QUINCY         CLOUDY    84  62  47 S6        30.00F HX  85
MACOMB*        CLOUDY    85  57  38 W5        30.03F HX  84
PITTSFIELD*    CLOUDY    85  64  49 S3        30.02F HX  86
$$

ILZ028>032-037-038-041>044-048-051>054-059>061-302100-
CENTRAL ILLINOIS

CITY           SKY/WX    TMP DP  RH WIND       PRES   REMARKS
BLOOMINGTON    MOSUNNY   87  61  41 VRB7      30.02F HX  87
DECATUR        CLOUDY    78  65  63 S10       30.02S HX  80
PEORIA         MOSUNNY   88  51  28 W7        30.00F HX  85
LINCOLN*       CLOUDY    87  62  42 CALM      30.00F HX  87
SPRINGFIELD    CLOUDY    88  62  41 NW8       30.01F HX  88
TAYLORVILLE    NOT AVBL
$$

ILZ033-039-045-046-055>057-062-063-302100-
EAST-CENTRAL ILLINOIS

CITY           SKY/WX    TMP DP  RH WIND       PRES   REMARKS
CHAMPAIGN      CLOUDY    88  51  28 N5        30.01F HX  85
MATTOON        CLOUDY    83  60  45 SW7       30.02S HX  83
$$

ILZ079-100>102-302100-
SOUTHWEST ILLINOIS

CITY           SKY/WX    TMP DP  RH WIND       PRES   REMARKS
ALTON          MOSUNNY   84  59  42 CALM      30.01F HX  84
BELLEVILLE     MOSUNNY   88  62  42 VRB3      30.00F HX  88
CAHOKIA*       MOSUNNY   83  59  44 N8        30.01F HX  83
SPARTA*        CLOUDY    84  64  50 E6        30.03F HX  85
$$

ILZ064>066-069>071-074>076-080>082-084>086-088>090-092>094-302100-
SOUTH-CENTRAL ILLINOIS

CITY           SKY/WX    TMP DP  RH WIND       PRES   REMARKS
CARBONDALE     MOSUNNY   86  60  41 S5        30.02F HX  86
CAIRO*         MOSUNNY   87  58  38 E5        30.02F HX  86
EFFINGHAM*     MOSUNNY   86  62  43 W5        30.04S HX  87
MARION         PTSUNNY   86  61  42 SW6       30.03F HX  86
MT. VERNON     MOSUNNY   84  63  48 CALM      30.03F HX  85
SALEM*         MOSUNNY   86  60  40 SW3       30.03F HX  85
$$

ILZ067-068-072-073-078-083-087-091-302100-
SOUTHEAST ILLINOIS

CITY           SKY/WX    TMP DP  RH WIND       PRES   REMARKS
LAWRENCEVILLE  SUNNY     86  57  37 CALM      30.02F HX  85
FLORA*         SUNNY     88  59  38 NW8       30.02F HX  87
HARRISBURG*    PTSUNNY   85  63  47 CALM      30.03F HX  86
ROBINSON*      MOSUNNY   86  57  38 N8        30.03F HX  85
CARMI*         MOSUNNY   87  60  40 NW5       30.01F HX  87
$$

ABBREVIATIONS USED IN REMARKS
   TC - TEMPERATURE IN CELSIUS
  WCI - WIND CHILL INDEX
   HX - HEAT INDEX
  VSB - VISIBILITY
$$





USA.gov is the U.S. government's official web portal to all federal, state and local government web resources and services.